Regional Weather Roundup
Issued by NWS

Home | Current Version | Previous Version | Text Only | Print | Product List | Glossary Off
Versions: 1 2 3 4 5 6 7 8 9 10 11 12 13 14 15 16 17 18 19 20 21 22 23 24 25 26 27 28 29 30 31 32 33 34 35 36 37 38 39 40 41 42 43 44 45 46 47 48 49 50

388
ASUS43 KMKX 261621
RWRWI

WISCONSIN REGIONAL WEATHER ROUNDUP
NATIONAL WEATHER SERVICE MILWAUKEE/SULLIVAN WI
1100 AM CDT MON JUN 26 2017

NOTE: "FAIR" INDICATES FEW OR NO CLOUDS BELOW 12,000 FEET WITH NO
SIGNIFICANT WEATHER AND/OR OBSTRUCTIONS TO VISIBILITY.

WIZ001-002-006>008-014>016-023>028-261700-
NORTHWEST WISCONSIN

CITY           SKY/WX    TMP DP  RH WIND       PRES   REMARKS
SUPERIOR ARPT  NOT AVBL
ASHLAND        MOSUNNY   58  48  69 VRB5      30.13S
HAYWARD        PTSUNNY   58  45  62 W7        30.14S
SIREN          PTSUNNY   63  44  50 N10G16    30.15F
CUMBERLAND     CLOUDY    57  43  58 NW10G16   30.15S
RICE LAKE      PTSUNNY   60  46  60 N7        30.16S
CHETEK         MOSUNNY   60  48  62 N8G23     30.15S
LADYSMITH      PTSUNNY   56  46  69 NW13      30.15S
EAU CLAIRE     PTSUNNY   62  46  55 NW14G21   30.13S
MENOMONIE      MOSUNNY   62  45  53 NW12G17   30.16S
NEW RICHMOND   SUNNY     64  41  44 N10G22    30.17S
OSCEOLA        MOSUNNY   63  45  52 NW12      30.20S
$$

WIZ003>005-009-010-017-018-261700-
NORTH CENTRAL WISCONSIN

CITY           SKY/WX    TMP DP  RH WIND       PRES   REMARKS
MANITOWISH WTR LGT RAIN  48  48 100 N9        30.09R
ARBOR VITAE    LGT RAIN  52  49  89 N14G21    30.07R
WOODRUFF       LGT RAIN  52  49  89 N14G21    30.07R
RHINELANDER    LGT RAIN  50  49  96 NW9       30.06S FOG
EAGLE RIVER    DRIZZLE   49  48  97 N8        30.05R
LAND O LAKES   CLOUDY    49  47  93 N10G20    30.07R FOG
PHILLIPS       CLOUDY    51  46  85 N9        30.11R
TOMAHAWK       NOT AVBL
MEDFORD        CLOUDY    52  45  77 NW15      30.10S
MERRILL        CLOUDY    53  45  75 NW13G18   30.07S
$$

WIZ029-030-035-036-043>047-261700-
CENTRAL WISCONSIN

CITY           SKY/WX    TMP DP  RH WIND       PRES   REMARKS
WAUSAU         CLOUDY    52  44  74 NW14G25   30.06S
MOSINEE        CLOUDY    54  45  71 NW13G22   30.09R
MARSHFIELD     PTSUNNY   56  45  66 NW16G26   30.09F
STEVENS POINT  CLOUDY    52  42  67 NW14G23   30.09R
WAUPACA        CLOUDY    57  44  60 W10G20    30.07S
WAUTOMA        LGT RAIN  54  45  71 W12G21    30.10R
WISC RAPIDS    CLOUDY    56  45  66 NW18G28   30.10F
CAMP DOUGLAS   PTSUNNY   57  46  67 W14G23    30.11F
$$

WIZ011>013-019>022-031-037>040-048>050-261700-
NORTHEAST WISCONSIN

CITY           SKY/WX    TMP DP  RH WIND       PRES   REMARKS
ANTIGO         CLOUDY    50  45  83 NW13G20   30.05S
SHAWANO        CLOUDY    56  46  67 NW8       30.04S
OCONTO         CLOUDY    56  46  66 W15       30.01S
STURGEON BAY     N/A     55  46  71 W13G20      N/A
GREEN BAY      CLOUDY    56  46  69 NW17G24   30.04S
MANITOWOC      CLOUDY    58  45  62 W16G22    30.04R
APPLETON       PTSUNNY   54  39  58 W17G28    30.04S
CLINTONVILLE   CLOUDY    54  43  66 NW14      30.05S
OSHKOSH        PTSUNNY   59  44  57 NW15G25   30.05F
$$

WIZ032>034-041-042-053>061-261700-
SOUTHWEST WISCONSIN

CITY           SKY/WX    TMP DP  RH WIND       PRES   REMARKS
LA CROSSE      MOSUNNY   68  45  43 NW13      30.15S
SPARTA         PTSUNNY   62  46  55 NW13G20   30.14S
VIROQUA        PTSUNNY   60  46  60 NW17G24   30.15S
BOSCOBEL       PTSUNNY   65  46  50 NW10      30.15S
PRAIRIE DU CHI MOSUNNY   65  43  45 NW9G16    30.15R
PLATTEVILLE    SUNNY     65  46  49 NW12G20   30.14S
$$

WIZ056-057-062-063-064-067-068-261700-
SOUTH CENTRAL WISCONSIN

CITY           SKY/WX    TMP DP  RH WIND       PRES   REMARKS
REEDSBURG      PTSUNNY   60  45  58 W16       30.12S
BARABOO/DELLS  PTSUNNY   61  42  49 NW9G17    30.11S
LONE ROCK      MOSUNNY   65  44  46 NW13G22   30.13S
MINERAL POINT  PTSUNNY   63  46  55 NW9       30.13F
MADISON        PTSUNNY   61  47  59 W10       30.10S
MIDDLETON      MOSUNNY   63  47  56 NW13G20   30.11F
WATERTOWN      NOT AVBL
MONROE         PTSUNNY   63  41  45 W13G23    30.12S
JANESVILLE     MOSUNNY   66  45  45 NW16G23   30.11R
$$

WIZ051-052-058>065-066-070>072-261700-
SOUTHEAST WISCONSIN

CITY           SKY/WX    TMP DP  RH WIND       PRES   REMARKS
MILWAUKEE      PTSUNNY   65  46  50 W12G23    30.07S
WAUKESHA       MOSUNNY   61  46  59 W14G23    30.09F
MILWAUKEE/TIMM PTSUNNY   63  41  45 W13G23    30.07F
RACINE         MOSUNNY   66  44  45 W15G24    30.08F
KENOSHA        PTSUNNY   66  46  48 W14       30.08S
FOND DU LAC    PTSUNNY   60  43  53 W18G26    30.06S
SHEBOYGAN      PTSUNNY   61  48  62 W17G28    30.04S
WEST BEND      MOSUNNY   61  41  48 W20G29    30.06S
JUNEAU           N/A     60  46  59 W14G20    30.09S
$$

LSZ147-162-261700-
LAKE SUPERIOR

STATION/POSITION TIME  TEMP    WIND        PRES    WAVE
                       AIR SEA DIR/SP/G            HT/PER
                 (UTC) (F)     (DEG/KT/KT) (MB)    (FT/S)
W MID LAKE BUOY  1550   44 39  270/ 14/ 16 1018.7S   1/ 3
DEVILS ISLAND    1600   52     230/ 13/ 15 1019.6F
SAXON HARBOR     1540   54     320/  5/  8 1019.6R
$$

LMZ867-665-643>646-261700-
LAKE MICHIGAN

STATION/POSITION TIME  TEMP    WIND        PRES    WAVE
                       AIR SEA DIR/SP/G            HT/PER
                 (UTC) (F)     (DEG/KT/KT) (MB)    (FT/S)
CHAMBERS ISLAND  1540   56     250/  7/ 12 1015.2R
S GREEN BAY BUOY 1600   56     290/ 16/ 19 1015.9
N MID LAKE BUOY  1450   53 55  340/  6/  6 1015.2    2/ 4
NORTHPORT PIER   1540   56     300/  7/ 13 1014.9S
KEWAUNEE LAKESHO 1554   57     280/ 10/ 15 1015.9S
SHEBOYGAN LAKESH 1600   58     300/ 19/ 23 1016.9F
PORT WASHINGTON  1530   64     290/ 10/ 18 1018.3S
ATWATER BUOY     1509   60 57  270/ 16/ 21 1017.9F
MILWAUKEE LAKESH 1600   62     280/ 15/ 21   N/A
S MID LAKE BUOY  1550   60 61  300/ 12/ 16 1018.4S   2/ 4
KENOSHA   LAKESH 1600   65     270/ 16/ 24 1018.3
$$

TC  - TEMPERATURE IN CELSIUS
VSB - VISIBILITY IN STATUTE MILES
WCI - WIND CHILL INDEX
HX  - HEAT INDEX





USA.gov is the U.S. government's official web portal to all federal, state and local government web resources and services.